Dewpoint
50 51 51 51 53 53 52 52 52 50 49 49 48 48 48 48 48 48 48 46 47 47 47 47 49 49 50 49 49 49 50 44 44 41 38 36 37 46 54 55 58 57 55 44 33 27 22 24 24 30 31 31 32 28 32 33 21 25 22 20 16 12 9 11 11 11 12 11 11 13 13 12 55 59 60 60 61 61 61 61 63 64 64 65 65 66 66 67
50 50 50 50 51 52 53 51 51 51 49 49 49 49 49 48 48 48 47 47 47 47 48 48 49 51 49 48 49 49 46 44 39 38 38 38 46 49 51 55 56 59 50 33 28 28 19 20 26 31 29 27 29 28 32 31 27 26 25 22 13 12 10 16 12 12 11 10 13 14 14 15 53 58 60 58 59 59 59 60 62 62 64 65 66 66 66 66
49 50 50 50 50 51 51 51 51 51 51 50 49 48 48 48 48 48 47 46 47 47 47 50 49 49 48 49 49 49 43 36 36 31 30 48 50 51 54 54 53 55 32 29 31 27 16 19 26 29 28 27 28 27 30 27 28 25 24 18 18 16 12 14 16 12 13 14 14 14 12 17 58 58 59 58 58 58 58 60 61 62 63 64 65 66 65 65
48 48 49 49 50 50 50 51 53 53 52 51 50 49 48 48 48 48 48 48 47 47 47 50 49 49 49 48 49 46 39 40 24 25 31 51 57 56 54 56 52 53 34 36 34 30 29 22 25 26 25 27 26 27 26 25 28 24 24 21 19 18 16 18 15 15 15 15 14 13 33 49 57 58 58 58 57 57 58 60 60 61 63 64 65 65 65 64
47 48 48 49 49 50 50 50 51 52 53 52 51 50 49 48 48 48 48 47 48 48 47 47 48 48 48 50 49 44 41 16 5 19 36 56 62 61 59 55 52 46 38 34 31 27 20 22 23 21 26 25 24 26 25 26 24 21 23 24 22 15 16 18 16 15 14 17 14 15 16 55 56 58 58 58 54 55 57 58 61 62 63 64 64 65 64 64
47 46 47 48 49 49 50 50 50 52 53 53 52 51 50 50 48 47 47 48 48 48 46 46 47 47 48 48 44 43 31 0 15 31 50 57 61 62 62 57 54 43 32 30 27 26 17 18 20 22 22 24 25 23 24 24 20 17 20 19 20 18 19 16 13 13 13 12 12 12 12 46 55 58 59 59 59 60 61 61 63 63 64 64 65 65 64 64
46 46 46 48 48 49 49 49 49 50 52 53 53 52 50 50 49 47 47 48 47 47 48 49 47 48 48 47 43 41 33 32 33 31 50 54 61 64 64 57 56 39 30 25 22 27 26 17 18 20 21 20 20 24 23 22 18 20 18 18 17 14 15 16 14 14 13 13 13 12 27 34 57 57 60 60 61 61 62 63 64 64 65 65 64 64 64 64
46 46 46 46 48 48 49 49 49 49 49 52 53 52 51 50 49 48 47 47 47 47 48 48 48 47 48 42 37 36 37 30 31 34 47 48 53 59 59 52 44 35 26 22 21 26 25 19 17 19 20 17 20 22 21 18 17 20 19 16 17 15 15 15 14 13 13 13 13 40 23 14 55 58 60 61 61 62 63 63 64 64 64 64 64 64 64 64
46 45 45 46 47 48 48 48 49 49 49 50 52 53 52 51 50 48 47 47 48 47 47 47 46 48 49 42 39 32 29 34 35 38 36 32 44 51 51 47 40 30 26 24 21 22 26 24 21 20 17 18 19 22 18 20 18 16 19 17 16 16 17 15 13 13 12 24 58 56 57 58 59 59 59 60 62 63 63 63 63 64 63 63 63 64 64 64
48 47 46 45 46 47 48 48 48 48 49 49 52 53 52 51 50 49 47 47 47 47 47 47 46 49 45 41 38 27 27 32 38 39 38 35 32 47 38 44 39 28 27 21 14 19 24 24 22 20 20 17 19 18 17 18 16 18 17 16 14 12 11 11 10 13 14 46 58 56 56 56 57 57 57 62 63 63 63 62 63 62 62 62 63 63 64 63
47 47 46 46 46 47 47 47 47 48 48 49 50 52 51 51 51 49 47 47 47 47 48 47 48 48 43 39 35 30 33 34 41 40 38 35 31 38 34 43 38 26 23 16 14 17 18 20 19 19 18 17 17 15 16 16 15 14 10 10 9 9 9 9 10 11 11 12 58 54 51 54 57 58 58 61 64 63 62 62 62 62 62 62 63 63 63 63
47 47 47 46 45 45 46 47 47 47 48 48 49 50 51 51 51 51 48 47 46 47 47 47 48 46 44 42 39 35 35 38 40 39 36 35 32 29 32 42 36 26 21 17 12 11 8 15 17 17 10 17 16 13 13 16 9 9 9 9 9 9 9 10 8 9 13 22 55 54 53 53 55 56 59 61 63 63 62 62 61 61 62 62 62 63 63 64
47 46 46 45 45 45 46 46 47 47 48 48 48 51 51 51 51 50 48 46 47 47 47 47 48 45 42 37 38 39 40 40 39 38 37 37 33 30 33 37 29 24 23 20 14 8 12 15 17 15 13 15 13 10 12 10 10 9 7 7 7 7 7 9 10 11 11 35 54 49 42 49 53 56 59 62 62 63 62 61 61 61 62 62 62 63 63 63
46 46 46 46 45 45 45 46 46 47 47 47 48 49 51 51 51 50 48 47 46 46 46 48 47 44 41 37 38 39 39 39 38 38 35 33 25 21 33 31 26 26 24 19 14 12 14 15 15 14 14 11 12 12 9 9 12 11 9 9 11 7 6 8 12 10 12 30 51 29 40 48 54 56 59 60 62 61 60 61 61 61 61 61 62 62 62 62
46 46 46 46 45 45 45 45 46 46 47 47 48 48 50 50 51 50 49 47 47 47 47 47 45 40 37 35 37 37 46 43 41 39 37 29 24 19 31 29 27 24 23 20 18 16 15 14 11 9 8 11 11 11 9 7 12 13 9 9 8 8 6 8 16 12 22 44 36 32 39 49 54 58 59 59 61 61 60 61 60 61 61 61 62 62 62 62
46 46 46 45 45 45 45 45 46 46 46 47 47 48 49 51 50 50 48 47 47 46 45 41 41 39 32 30 29 38 29 41 36 38 39 33 25 20 26 29 25 23 22 18 17 16 16 14 10 6 8 11 10 10 9 7 9 11 10 17 10 7 6 5 8 14 20 41 38 32 30 50 53 58 58 59 59 61 60 60 60 60 61 61 62 61 62 62
45 45 45 45 45 45 45 45 45 46 46 46 47 48 49 50 50 49 48 47 47 47 43 36 41 40 28 31 33 24 21 29 32 27 32 33 26 23 30 26 24 21 20 17 16 16 15 14 12 6 12 11 8 11 12 13 13 11 12 12 14 6 6 5 9 12 33 42 40 48 47 51 53 58 58 59 59 58 59 60 59 60 60 61 61 61 61 62
45 45 45 45 45 45 45 45 45 45 46 46 47 48 49 49 49 48 48 47 46 45 44 45 41 38 34 37 27 20 27 26 26 26 27 29 26 30 31 29 23 20 18 14 13 14 15 11 8 6 8 11 11 12 13 11 13 14 14 14 9 12 12 6 7 23 38 39 40 46 48 51 53 58 58 58 59 58 57 57 58 59 60 60 60 60 61 61
45 45 45 45 45 45 45 45 45 45 45 47 46 49 48 48 47 47 43 42 35 31 26 32 34 14 1 20 25 30 30 29 28 27 25 25 23 26 27 27 21 19 18 16 14 12 14 12 17 10 4 9 8 10 13 12 10 9 11 11 13 9 8 7 16 38 42 41 43 42 45 50 54 56 57 58 58 56 55 56 58 58 58 60 60 60 60 61
45 45 44 44 45 44 44 44 44 44 45 46 48 47 44 41 40 37 42 41 34 28 22 27 32 29 27 26 30 34 30 28 27 28 25 21 20 19 23 25 25 23 17 16 14 11 15 8 7 7 5 5 10 11 13 12 11 13 13 11 10 8 8 10 26 40 44 45 46 47 51 51 54 55 56 56 56 55 55 56 56 57 57 58 59 60 60 61
46 45 44 44 44 44 44 44 44 45 45 47 46 43 36 35 32 30 36 37 36 36 31 32 33 31 26 31 34 31 27 24 24 23 25 29 17 17 18 23 21 21 20 17 10 21 13 11 8 5 6 6 9 15 23 13 12 9 9 7 8 8 14 34 42 47 45 48 47 51 51 51 52 54 53 54 55 55 55 54 56 56 56 57 57 57 58 59
45 45 45 44 44 44 44 44 44 44 46 47 44 40 40 37 35 37 33 29 34 37 37 34 33 33 34 33 33 31 28 24 19 19 22 19 15 15 15 24 23 18 23 17 16 12 10 7 10 7 9 9 12 18 15 15 12 12 9 11 8 8 13 35 48 48 48 48 49 50 50 50 51 52 52 52 53 53 54 54 55 55 55 56 56 56 57 58
45 45 45 44 44 44 44 44 44 45 47 45 41 41 39 39 40 41 35 32 28 32 37 36 35 34 33 33 33 31 25 22 19 19 22 19 15 18 13 20 24 24 20 15 12 16 11 6 10 12 11 10 12 13 12 16 20 13 12 11 8 10 9 27 47 49 47 49 48 49 48 49 51 52 52 52 53 53 55 55 56 56 55 54 55 56 56 56
45 45 45 45 44 44 44 44 46 45 45 43 41 40 43 42 41 39 32 28 26 26 34 36 35 33 32 29 29 29 24 21 19 17 24 17 15 20 13 17 23 24 19 18 15 7 11 10 16 12 10 9 12 12 14 14 11 18 12 9 8 9 12 31 46 49 49 49 48 48 48 48 50 48 50 52 53 52 53 54 55 55 56 57 57 57 58 57
45 45 45 45 45 43 44 44 44 42 44 44 42 42 46 45 42 41 33 28 23 24 32 32 35 34 32 29 28 25 24 21 19 20 23 18 16 14 15 13 24 24 22 21 17 9 16 19 15 11 10 10 12 11 13 13 12 12 17 8 9 28 45 47 48 45 45 46 46 44 42 43 49 49 49 52 52 51 52 53 53 55 55 56 56 57 58 58
45 45 45 45 44 44 44 41 41 43 42 40 41 43 46 45 44 43 31 25 20 22 29 24 32 25 32 26 25 23 19 15 18 18 18 19 22 17 11 12 16 21 22 22 16 19 17 21 13 11 11 11 10 9 12 11 12 14 10 11 28 42 46 46 42 32 39 40 43 47 29 38 48 48 50 51 51 51 51 52 53 54 55 55 56 56 57 57
45 45 46 45 45 45 41 37 42 43 39 39 44 44 44 42 44 43 26 19 16 24 23 26 21 20 25 25 22 20 10 9 16 16 18 26 17 15 18 11 14 16 22 24 24 18 20 19 15 13 12 11 11 9 12 11 10 9 10 16 44 43 42 42 33 26 38 46 47 45 39 39 38 46 49 50 51 50 50 51 52 54 54 55 55 56 56 56
46 46 45 45 45 44 44 43 42 41 39 42 42 43 46 44 43 42 26 12 8 25 21 26 21 26 22 25 21 13 13 13 10 13 14 18 21 12 17 10 15 18 20 21 16 19 25 20 17 13 14 11 8 11 13 12 9 8 14 38 36 35 40 40 32 37 42 42 41 42 42 39 41 45 48 49 48 50 50 50 52 53 53 54 54 55 55 55
46 46 44 46 46 45 45 43 41 38 43 41 45 47 45 45 41 30 20 9 19 17 28 24 28 21 22 23 17 12 14 17 14 13 15 18 20 14 15 12 14 18 18 20 18 18 18 20 18 15 12 10 14 14 13 10 8 9 17 21 29 37 38 35 31 33 36 27 35 40 41 30 38 46 47 47 47 48 50 51 52 53 53 53 54 54 54 54
45 45 42 43 45 44 43 45 42 43 46 46 46 45 45 44 37 25 14 9 21 14 21 22 20 17 22 20 15 12 11 14 16 16 16 18 18 12 13 13 13 17 17 17 16 16 17 27 23 17 14 15 14 14 12 9 11 12 12 16 19 25 31 29 35 36 31 22 27 39 40 28 30 44 44 46 46 47 48 51 52 53 54 53 54 54 54 54
46 44 44 45 44 45 44 38 41 46 44 46 46 45 44 37 25 17 8 10 23 20 21 19 19 21 20 17 13 13 11 12 15 16 16 17 15 10 12 12 16 16 19 17 16 17 20 21 19 18 23 16 14 12 11 11 12 10 9 10 12 18 25 28 27 28 20 17 25 39 39 37 21 38 44 46 48 48 48 50 51 52 52 53 53 53 53 54
45 45 44 44 45 45 41 38 45 46 46 44 43 41 38 23 23 17 10 26 17 19 19 18 20 20 19 15 11 12 9 11 14 17 16 14 16 12 12 14 14 15 14 16 15 17 17 17 18 17 25 14 13 11 10 9 11 9 9 10 10 10 20 11 18 16 17 14 23 29 40 34 28 37 45 45 47 48 49 50 51 51 51 52 52 53 53 53
46 46 46 45 45 45 45 47 47 45 45 43 40 39 29 19 14 17 19 25 24 26 25 19 19 20 19 10 8 10 13 10 14 17 17 14 13 10 10 12 14 17 14 21 17 15 15 19 17 16 19 18 12 8 9 8 8 8 9 13 9 7 7 8 11 16 18 21 25 28 39 33 35 36 44 46 48 48 49 50 52 51 51 51 51 52 52 52
47 46 44 45 45 44 45 46 47 46 43 40 37 32 24 15 14 29 27 26 29 28 25 17 20 20 17 7 9 9 8 11 14 16 17 14 13 15 9 6 19 16 21 23 14 13 16 14 15 16 15 18 12 9 10 11 9 7 10 8 12 11 6 8 8 9 12 19 31 36 33 31 28 41 45 44 45 48 49 50 51 52 51 52 51 51 51 51
46 44 44 45 45 45 46 46 47 47 42 37 35 28 19 16 23 24 27 28 29 27 25 25 19 19 16 11 10 9 11 13 14 16 16 13 15 15 13 9 11 21 16 15 21 20 12 15 16 17 16 15 13 14 11 8 7 7 9 8 12 11 21 5 16 15 21 25 28 35 33 39 39 46 47 48 48 50 50 50 51 51 51 51 51 50 51 51
42 41 43 41 42 44 45 46 46 46 42 37 29 24 20 23 21 28 28 33 29 27 27 17 19 17 15 8 11 7 11 14 13 16 14 15 15 15 10 6 11 18 15 17 24 13 12 14 18 16 14 15 14 13 12 10 13 11 7 9 10 18 21 22 21 26 25 17 14 36 37 38 43 43 46 49 50 49 50 50 50 50 50 51 50 50 50 51
40 42 40 42 42 44 47 47 47 45 42 36 27 22 27 28 32 31 35 31 30 28 27 16 18 16 13 9 9 7 9 15 13 15 15 15 18 17 10 6 9 17 14 23 22 22 13 15 19 16 13 15 14 13 11 11 15 9 9 10 16 18 19 21 10 17 17 11 20 33 35 37 32 34 45 47 49 49 49 49 49 50 50 50 50 50 50 50
40 40 42 42 41 43 48 47 47 44 40 32 26 27 33 28 36 34 35 32 30 28 25 24 19 13 12 12 9 7 10 12 13 13 13 15 17 16 12 6 7 17 17 20 17 21 21 13 15 16 14 14 12 12 9 9 10 10 11 11 8 11 10 21 19 14 14 14 19 32 33 35 35 40 44 46 48 48 49 49 48 48 49 49 49 50 50 50
39 39 36 38 43 46 49 48 46 40 35 28 27 26 31 32 36 34 35 33 30 27 25 28 20 21 14 13 12 9 11 13 10 12 12 15 12 15 13 6 6 13 19 17 16 27 27 14 16 17 15 12 11 12 14 9 9 12 12 9 14 16 21 12 14 20 17 11 22 31 32 32 37 39 44 46 47 49 49 48 48 49 49 49 49 49 49 49
40 37 35 41 44 48 47 47 41 38 32 26 28 28 34 29 34 36 36 32 29 27 27 27 29 18 13 15 10 10 10 11 10 13 12 14 11 12 11 6 7 9 18 18 12 27 22 31 12 17 16 11 11 13 14 10 10 9 11 11 12 22 14 16 23 12 14 20 18 21 25 30 37 39 44 46 47 48 49 48 48 49 49 49 49 49 49 49
40 36 36 43 44 46 44 42 36 32 28 31 32 29 31 30 35 35 34 33 31 30 28 26 25 27 19 14 10 10 10 9 9 11 9 9 13 12 11 7 6 12 14 14 16 26 23 20 19 21 15 13 14 12 12 10 10 9 11 12 9 15 11 6 10 21 24 19 21 17 14 28 38 44 45 46 47 48 48 48 48 48 48 49 49 49 48 48
38 31 35 40 44 44 39 32 33 35 32 29 27 32 31 37 34 34 33 33 32 30 30 28 27 28 30 21 14 10 10 8 10 15 10 12 16 18 9 8 7 10 16 18 15 28 30 30 25 18 16 16 13 13 17 11 11 9 9 10 9 20 17 7 7 17 23 26 26 25 17 20 42 45 45 45 47 48 48 48 47 48 48 49 49 48 48 47
36 32 40 42 44 43 38 31 35 33 31 34 35 35 36 36 34 34 32 34 31 30 31 28 29 30 31 28 26 8 10 13 10 10 11 10 14 16 8 6 6 10 13 19 15 23 39 25 19 16 16 15 15 15 17 11 10 9 9 12 10 14 15 12 17 25 13 29 22 20 16 23 44 46 46 46 48 48 48 48 47 48 48 48 48 48 47 46
37 37 39 47 47 41 37 28 27 28 32 35 35 34 36 35 35 33 33 33 32 31 33 31 30 30 29 31 25 10 12 15 11 11 11 13 12 17 10 7 6 8 11 19 18 35 19 20 20 15 13 15 16 14 13 12 9 16 13 19 11 14 18 27 27 28 16 29 21 14 11 27 44 45 46 46 48 47 47 47 47 47 47 48 47 47 46 46
38 39 39 42 45 43 33 35 32 30 31 32 32 32 33 36 36 36 33 32 32 32 33 32 31 32 29 32 31 29 26 16 18 9 12 19 14 22 9 8 5 10 7 17 32 26 21 28 21 13 13 12 12 13 15 14 12 21 27 17 15 10 24 22 11 18 10 27 27 17 15 37 43 44 45 46 47 47 47 47 47 47 47 47 46 45 45 44
36 28 34 37 40 40 39 40 36 33 31 31 31 32 34 32 34 36 34 33 33 33 36 35 31 33 34 32 27 24 24 28 18 17 7 11 8 13 14 8 9 6 26 37 35 29 27 30 26 28 18 16 17 21 25 24 17 13 22 17 18 17 19 20 28 17 12 25 26 28 30 39 39 42 44 45 46 45 45 46 46 46 46 46 45 45 44 44
36 30 30 30 35 37 35 37 35 35 31 35 29 33 31 33 33 33 33 35 34 37 38 35 33 35 34 33 34 31 32 25 14 11 11 10 11 10 14 8 11 15 43 37 33 27 31 20 24 33 30 25 24 22 28 25 15 15 17 21 16 18 27 27 19 16 33 26 18 37 39 41 39 42 44 44 45 45 45 45 46 45 45 45 44 44 44 42
33 33 37 37 31 28 30 31 35 34 35 34 31 33 32 31 33 33 33 33 37 41 37 32 34 33 33 35 34 29 32 33 23 18 14 17 8 12 11 12 9 24 38 28 27 32 26 18 24 23 21 31 26 29 34 32 23 19 14 21 23 20 26 25 27 30 32 19 11 36 40 37 37 42 43 44 45 45 45 45 45 45 44 44 43 42 41 41
40 39 39 40 33 35 32 33 35 34 34 34 32 32 32 32 33 34 35 36 34 37 37 31 33 33 33 36 37 36 35 26 26 35 26 25 21 22 19 14 13 25 29 30 25 36 28 17 32 21 25 35 36 36 35 28 34 28 27 24 24 23 26 25 27 34 31 27 35 38 41 39 37 42 44 44 46 45 45 45 45 43 43 43 42 41 40 40
38 37 36 39 38 37 37 37 36 36 34 37 33 34 33 31 34 34 34 35 30 34 37 35 33 33 34 35 37 37 37 38 38 29 36 31 31 28 24 31 21 30 24 28 26 30 24 16 32 25 21 31 36 35 34 31 31 30 33 33 32 28 29 38 38 36 34 39 38 40 42 41 40 43 45 45 45 45 45 44 44 43 42 42 41 40 40 39
42 44 43 38 36 36 38 37 36 35 33 35 33 34 35 34 35 35 35 36 32 34 35 35 35 37 33 37 37 37 37 38 38 38 40 33 22 29 19 21 21 27 23 27 27 31 25 25 33 29 17 25 35 35 36 35 34 33 35 36 35 29 25 34 29 38 29 38 40 40 39 37 39 43 44 45 45 44 44 44 44 43 42 42 41 40 39 38
43 46 46 41 34 37 36 36 35 33 30 36 36 36 36 36 36 36 32 33 34 34 37 35 37 39 35 37 37 38 38 40 40 40 39 37 39 37 35 24 20 27 28 26 34 25 29 32 27 23 12 19 37 34 34 33 29 23 27 35 37 38 38 39 37 38 39 41 38 31 33 38 42 44 43 44 44 44 44 44 44 42 41 41 41 40 39 38